Location: Hertford
(51.8000°N, 0.0667°W)
Time: 18:00:36
(UTC+00:00)

Cosmos 1634 Rocket - Visible Passes

Search period start: 26 January 2021 00:00
Search period end: 05 February 2021 00:00
Orbit: 959 x 992 km, 82.9° (Epoch: 26 January)

Date Brightness Start Highest point End Pass type
(mag) Time Alt. Az. Time Alt. Az. Time Alt. Az.
26 Jan 5.9 04:38:10 10° SE 04:43:16 28° E 04:48:24 10° NNE visible
26 Jan 4.0 06:22:11 10° SSW 06:28:15 60° WNW 06:34:25 10° N visible
26 Jan 4.9 17:11:57 10° NNW 17:18:03 55° W 17:24:09 10° SSW visible
26 Jan 7.2 19:00:56 10° WNW 19:02:02 10° WNW 19:03:08 10° W visible
27 Jan 5.0 05:02:40 10° SSE 05:08:30 46° E 05:14:23 10° NNE visible
27 Jan 4.5 06:48:22 10° SW 06:54:03 37° WNW 06:59:47 10° N visible
27 Jan 5.9 17:37:49 10° NNW 17:43:21 34° W 17:48:53 10° SSW visible
28 Jan 6.7 03:46:16 10° ESE 03:49:34 15° ENE 03:52:53 10° NE visible
28 Jan 4.1 05:27:44 10° S 05:33:54 76° E 05:40:07 10° NNE visible
28 Jan 6.6 18:04:00 10° NW 18:08:29 21° W 18:12:58 10° SW visible
29 Jan 6.0 04:09:44 10° SE 04:14:36 25° E 04:19:29 10° NNE visible
29 Jan 3.9 05:53:19 10° SSW 05:59:27 68° WNW 06:05:40 10° N visible
29 Jan 7.0 18:31:05 10° NW 18:33:26 12° WNW 18:35:48 10° W visible
30 Jan 5.2 04:34:06 10° SSE 04:39:47 41° E 04:45:32 10° NNE visible
30 Jan 4.3 06:19:22 10° SW 06:25:11 42° WNW 06:31:05 10° N visible
31 Jan 6.7 03:18:17 10° E 03:20:57 13° ENE 03:23:38 10° NE visible
31 Jan 4.3 04:59:02 10° S 05:05:08 67° E 05:11:19 10° NNE visible
31 Jan 4.8 06:45:58 10° WSW 06:51:06 27° WNW 06:56:18 10° N visible
31 Jan 6.5 17:35:01 10° NNW 17:39:50 24° W 17:44:39 10° SW visible
01 Feb 6.1 03:41:21 10° SE 03:45:56 22° E 03:50:31 10° NNE visible
01 Feb 3.9 05:24:28 10° SSW 05:30:39 76° WNW 05:36:55 10° N visible
01 Feb 6.8 18:01:44 10° NW 18:04:49 14° WNW 18:07:56 10° WSW visible
02 Feb 5.3 04:05:32 10° SSE 04:11:04 36° E 04:16:40 10° NNE visible
02 Feb 4.2 05:50:25 10° SW 05:56:21 47° WNW 06:02:21 10° N visible
03 Feb 6.8 02:50:33 10° E 02:52:21 11° ENE 02:54:08 10° NE visible
03 Feb 4.4 04:30:21 10° S 04:36:23 60° E 04:42:30 10° NNE visible
03 Feb 4.7 06:16:52 10° SW 06:22:12 30° WNW 06:27:38 10° N visible
04 Feb 6.2 03:13:02 10° ESE 03:17:17 20° ENE 03:21:32 10° NE visible
04 Feb 3.9 04:55:40 10° S 05:01:51 85° W 05:08:09 10° N visible
04 Feb 5.2 06:43:56 10° WSW 06:48:16 19° WNW 06:52:39 10° NNW visible
04 Feb 6.7 17:32:32 10° NW 17:36:13 16° WNW 17:39:53 10° WSW visible
